Weather History for TIST - July, 2013

Change the Weather History Date:

Friday, July 19, 2013

  Actual Average Record
Temperature  
Mean Temperature 85 °F 84 °F  
Max Temperature 92 °F 90 °F 96 °F (1993)
Min Temperature 78 °F 78 °F 73 °F (1990)
Degree Days  
Heating Degree Days 0 0  
Month to date heating degree days 0 0  
Since 1 June heating degree days 0 0  
Since 1 July heating degree days 0 0  
Cooling Degree Days 20 19  
Month to date cooling degree days 350 361  
Year to date cooling degree days 3082 3168  
Since 1 June cooling degree days 886 916  
Growing Degree Days 34 (Base 50)    
Moisture  
Dew Point 75 °F    
Average Humidity 71    
Maximum Humidity 85    
Minimum Humidity 56    
Precipitation  
Precipitation 0.00 in 0.09 in 1.88 in (1960)
Month to date precipitation 1.39 1.72  
Year to date precipitation 14.65 15.28  
Sea Level Pressure  
Sea Level Pressure 30.08 in    
Wind  
Wind Speed 12 mph (East)    
Max Wind Speed 22 mph    
Max Gust Speed 29 mph    
Visibility 10 miles    
Events      
T = Trace of Precipitation, MM = Missing Value Source: NWS Daily Summary

Daily Weather History Graph

Daily Weather History Graph

Search for Another Location

Airport or City:

Trip Planner

Search our weather history database for the weather conditions in past years. The results will help you decide how hot, cold, wet, or windy it might be!

Date:

Astronomy

Jul. 19, 2013 Rise Set
Actual Time 5:53 AM AST 6:58 PM AST
Civil Twilight 5:29 AM AST 7:22 PM AST
Nautical Twilight 5:01 AM AST 7:50 PM AST
Astronomical Twilight 4:33 AM AST 8:19 PM AST
Moon 3:57 PM AST (7/19) 2:28 AM AST (7/19)
Length of Visible Light 13h 52m
Length of Day
13h 05m
Waxing Gibbous, 86% of the Moon is Illuminated
Jul 19
Waxing Gibbous
Jul 22
Full
Jul 29
Last Quarter
Aug 6
New
Aug 14
First Quarter

Hourly Weather History & Observations

Time (AST) Temp. Heat Index Dew Point Humidity Pressure Visibility Wind Dir Wind Speed Gust Speed Precip Events Conditions
12:53 AM 80.1 °F 85.4 °F 75.9 °F 87% 30.07 in 10.0 mi ESE 12.7 mph - N/A   Scattered Clouds
1:53 AM 80.1 °F 85.1 °F 75.0 °F 85% 30.06 in 10.0 mi East 9.2 mph - N/A   Overcast
2:53 AM 80.1 °F 85.1 °F 75.0 °F 85% 30.05 in 10.0 mi East 10.4 mph - N/A   Overcast
4:53 AM 79.0 °F - 73.9 °F 84% 30.05 in 10.0 mi East 6.9 mph - N/A   Clear
5:53 AM 79.0 °F - 73.9 °F 84% 30.06 in 10.0 mi ESE 9.2 mph - N/A   Mostly Cloudy
6:53 AM 81.0 °F 87.3 °F 75.9 °F 85% 30.07 in 10.0 mi East 8.1 mph - N/A   Scattered Clouds
7:53 AM 82.9 °F 91.8 °F 77.0 °F 82% 30.09 in 10.0 mi East 13.8 mph - N/A   Overcast
8:53 AM 86.0 °F 95.1 °F 75.0 °F 70% 30.11 in 10.0 mi ESE 15.0 mph 20.7 mph N/A   Scattered Clouds
9:53 AM 88.0 °F 97.5 °F 75.0 °F 65% 30.12 in 10.0 mi East 11.5 mph - N/A   Partly Cloudy
10:53 AM 87.1 °F 97.3 °F 75.9 °F 69% 30.12 in 10.0 mi ENE 15.0 mph 23.0 mph N/A   Mostly Cloudy
11:53 AM 91.0 °F 101.6 °F 75.0 °F 59% 30.12 in 10.0 mi East 16.1 mph 28.8 mph N/A   Mostly Cloudy
12:53 PM 91.9 °F 101.3 °F 73.9 °F 55% 30.11 in 10.0 mi East 18.4 mph 25.3 mph N/A   Mostly Cloudy
1:17 PM 89.6 °F 98.2 °F 73.4 °F 59% 30.10 in 10.0 mi ESE 17.3 mph - N/A   Partly Cloudy
1:53 PM 91.0 °F 99.3 °F 73.0 °F 55% 30.09 in 10.0 mi East 17.3 mph 26.5 mph N/A   Partly Cloudy
2:00 PM 91.4 °F 100.1 °F 73.4 °F 55% 30.09 in 10.0 mi East 17.3 mph 26.5 mph N/A   Overcast
2:53 PM 91.0 °F 102.9 °F 75.9 °F 61% 30.07 in 10.0 mi East 12.7 mph 20.7 mph N/A   Overcast
3:53 PM 89.1 °F 98.0 °F 73.9 °F 61% 30.06 in 10.0 mi East 13.8 mph 23.0 mph N/A   Overcast
4:53 PM 88.0 °F 96.5 °F 73.9 °F 63% 30.06 in 10.0 mi East 16.1 mph 21.9 mph N/A   Overcast
5:53 PM 86.0 °F 93.8 °F 73.9 °F 67% 30.06 in 10.0 mi ESE 16.1 mph - N/A   Overcast
6:30 PM 84.2 °F 90.9 °F 73.4 °F 70% 30.07 in 10.0 mi East 12.7 mph - N/A   Overcast
6:42 PM 84.2 °F 90.9 °F 73.4 °F 70% 30.07 in 10.0 mi East 8.1 mph - N/A   Overcast
6:53 PM 84.0 °F 91.9 °F 75.0 °F 74% 30.07 in 10.0 mi ENE 9.2 mph - N/A   Overcast
7:28 PM 82.4 °F 89.5 °F 75.2 °F 79% 30.08 in 10.0 mi ENE 8.1 mph - N/A   Overcast
7:53 PM 82.9 °F 90.8 °F 75.9 °F 79% 30.08 in 10.0 mi East 11.5 mph - N/A   Overcast
8:53 PM 82.0 °F 89.4 °F 75.9 °F 82% 30.09 in 10.0 mi East 10.4 mph - N/A   Overcast
9:49 PM 82.4 °F 89.5 °F 75.2 °F 79% 30.10 in 10.0 mi East 8.1 mph - N/A   Overcast
9:53 PM 82.0 °F 88.6 °F 75.0 °F 79% 30.11 in 10.0 mi East 13.8 mph 18.4 mph N/A   Overcast
10:04 PM 82.4 °F 89.5 °F 75.2 °F 79% 30.10 in 10.0 mi East 11.5 mph - N/A   Overcast
10:53 PM 82.0 °F 88.6 °F 75.0 °F 79% 30.11 in 10.0 mi East 11.5 mph 17.3 mph N/A   Overcast
11:49 PM 82.4 °F 89.5 °F 75.2 °F 79% 30.09 in 10.0 mi ENE 6.9 mph - N/A   Overcast
11:53 PM 82.0 °F 88.6 °F 75.0 °F 79% 30.09 in 10.0 mi NE 9.2 mph - N/A   Overcast